TimeMST,TemperatureF,Dew PointF,Humidity,Sea Level PressureIn,VisibilityMPH,Wind Direction,Wind SpeedMPH,Gust SpeedMPH,PrecipitationIn,Events,Conditions,WindDirDegrees,DateUTC
12:53 AM,-14.1,-20.9,71,30.39,10.0,South,5.8,-,N/A,,Partly Cloudy,190,2013-01-15 07:53:00
1:53 AM,-15.0,-22.0,71,30.41,10.0,SSW,8.1,-,N/A,,Partly Cloudy,210,2013-01-15 08:53:00
2:53 AM,-13.0,-20.9,68,30.40,10.0,SSW,6.9,-,N/A,,Clear,200,2013-01-15 09:53:00
3:53 AM,-16.1,-24.0,67,30.44,10.0,SSW,4.6,-,N/A,,Clear,210,2013-01-15 10:53:00
4:53 AM,-11.0,-18.9,68,30.45,10.0,SSW,4.6,-,N/A,,Overcast,200,2013-01-15 11:53:00
5:53 AM,-17.0,-24.0,70,30.53,10.0,SSW,3.5,-,N/A,,Clear,210,2013-01-15 12:53:00
6:53 AM,-9.9,-18.0,68,30.49,10.0,SSE,3.5,-,N/A,,Mostly Cloudy,160,2013-01-15 13:53:00
7:53 AM,-7.1,-15.0,68,30.51,10.0,Calm,Calm,-,N/A,,Mostly Cloudy,0,2013-01-15 14:53:00
8:53 AM,-5.1,-11.9,72,30.56,10.0,NNW,3.5,-,N/A,,Overcast,340,2013-01-15 15:53:00
9:53 AM,-2.9,-13.0,62,30.58,10.0,North,5.8,-,N/A,,Overcast,350,2013-01-15 16:53:00
10:53 AM,-0.9,-11.9,60,30.55,10.0,NNW,3.5,-,N/A,,Overcast,330,2013-01-15 17:53:00
11:53 AM,3.0,-9.9,55,30.53,10.0,North,4.6,-,N/A,,Overcast,350,2013-01-15 18:53:00
12:53 PM,3.9,-9.0,55,30.53,10.0,North,5.8,-,N/A,,Overcast,350,2013-01-15 19:53:00
1:53 PM,6.1,-9.0,50,30.55,10.0,NW,3.5,-,N/A,,Overcast,310,2013-01-15 20:53:00
2:53 PM,7.0,-7.1,53,30.55,10.0,Calm,Calm,-,N/A,,Overcast,0,2013-01-15 21:53:00
3:53 PM,8.1,-5.1,55,30.58,10.0,South,4.6,-,N/A,,Overcast,180,2013-01-15 22:53:00
4:53 PM,10.0,-0.9,61,30.53,10.0,SW,3.5,-,N/A,,Overcast,220,2013-01-15 23:53:00
5:53 PM,8.1,-2.9,61,30.58,10.0,North,4.6,-,N/A,,Overcast,350,2013-01-16 00:53:00
6:53 PM,8.1,-2.9,61,30.58,10.0,North,5.8,-,N/A,,Overcast,10,2013-01-16 01:53:00
7:53 PM,6.1,-6.0,58,30.61,10.0,WNW,4.6,-,N/A,,Overcast,300,2013-01-16 02:53:00
8:53 PM,3.9,-5.1,66,30.60,10.0,SSW,3.5,-,N/A,,Overcast,210,2013-01-16 03:53:00
9:53 PM,1.0,-7.1,69,30.61,10.0,Calm,Calm,-,N/A,,Scattered Clouds,0,2013-01-16 04:53:00
10:53 PM,3.9,-4.0,70,30.62,10.0,Calm,Calm,-,N/A,,Overcast,0,2013-01-16 05:53:00
11:53 PM,6.1,-2.9,67,30.58,10.0,SSW,4.6,-,N/A,,Overcast,200,2013-01-16 06:53:00